Home > Weather > Faridabad > Past weeks

Flag for India Past Weather in Faridabad, Haryana, India — Yesterday and Last 2 Weeks

Now
81 °F

Fog.


Feels Like: 88 °F
Forecast: 76 / 87 °F
Wind: 5 mph from East

Location: New Delhi Palam Airport

Current Time: Jul 29, 2016 at 11:23:17 PM

Latest Report: Jul 29, 2016 at 10:30 PM


Visibility: 1 mi

Pressure: 29.59 "Hg

Humidity: 94%

Dew Point: 79 °F

Location of FaridabadLocation

Past Weather in Faridabad — Graph

°F

Faridabad Temperature Yesterday

Maximum temperature yesterday: 90 °F (at 1:30 PM)
Minimum temperature yesterday: 81 °F (at 3:30 AM)
Average temperature yesterday: 84 °F

High & Low Weather Summary for the Past Weeks

 TemperatureHumidityPressure
High100 °F (Jul 21, 4:00 PM)100% (Jul 16, 6:30 AM)29.74 "Hg (Jul 16, 6:30 AM)
Low77 °F (Jul 16, 6:30 AM)47% (Jul 21, 4:30 PM)29.45 "Hg (Jul 15, 5:00 PM)
Average86 °F79%29.59 "Hg
* Reported Jul 14 9:30 PM — Jul 29 10:00 PM, Faridabad, Weather by CustomWeather, © 2016

Note: Actual official high and low records may vary slightly from our data, if they occured in-between our weather recording intervals... More about our weather records

Advertising

Faridabad Weather History for the Previous 24 Hours

Scroll right to see more
 ConditionsComfort  
Time TempWeatherWind HumidityBarometerVisibility
10:00 PM
Fri, Jul 29
81 °FFog.3 mph94%29.59 "Hg1 mi
9:30 PM81 °FFog.2 mph94%29.59 "Hg1 mi
9:00 PM81 °FFog.No wind94%29.56 "Hg1 mi
8:30 PM81 °FFog.No wind94%29.56 "Hg1 mi
8:00 PM81 °FFog.No wind94%29.56 "Hg1 mi
7:30 PM81 °FFog.No wind94%29.56 "Hg1 mi
7:00 PM81 °FFog.No wind94%29.56 "Hg1 mi
6:30 PM81 °FFog.No wind94%29.53 "Hg1 mi
6:00 PM81 °FFog.No wind94%29.53 "Hg1 mi
5:30 PM81 °FFog.No wind94%29.53 "Hg1 mi
5:00 PM81 °FFog.7 mph94%29.53 "Hg1 mi
4:30 PM81 °FFog.7 mph89%29.56 "Hg1 mi
4:00 PM82 °FLight rain. Mostly cloudy.5 mph94%29.56 "Hg1 mi
3:30 PM82 °FFog.3 mph89%29.56 "Hg1 mi
3:00 PM82 °FFog.5 mph94%29.56 "Hg1 mi
2:30 PM81 °FFog.5 mph94%29.56 "Hg1 mi
2:00 PM81 °FFog.5 mph94%29.59 "Hg1 mi
1:30 PM81 °FRain. Mostly cloudy.5 mph94%29.59 "Hg1 mi
1:00 PM81 °FFog.No wind94%29.62 "Hg1 mi
12:30 PM81 °FFog.5 mph94%29.62 "Hg1 mi
12:00 PM81 °FThunderstorms. Mostly cloudy.2 mph94%29.62 "Hg1 mi
11:30 AM81 °FThunderstorms. Mostly cloudy.3 mph94%29.62 "Hg1 mi
11:00 AM81 °FThunderstorms. Mostly cloudy.7 mph94%29.65 "Hg1 mi
10:30 AM82 °FRain. Mostly cloudy.9 mph94%29.62 "Hg1 mi
10:00 AM84 °FFog.6 mph89%29.62 "Hg1 mi
9:30 AM86 °FFog.6 mph84%29.62 "Hg1 mi
9:00 AM84 °FFog.5 mph89%29.62 "Hg1 mi
8:30 AM82 °FFog.5 mph94%29.62 "Hg1 mi
8:00 AM82 °FFog.No wind94%29.62 "Hg1 mi
7:00 AM82 °FFog.No wind94%29.59 "Hg1 mi
6:30 AM81 °FFog.No wind100%29.59 "Hg1 mi
6:00 AM81 °FFog.No wind94%29.56 "Hg1 mi
5:30 AM81 °FFog.No wind94%29.56 "Hg1 mi
5:00 AM81 °FFog.No wind94%29.56 "Hg1 mi
4:30 AM81 °FFog.No wind94%29.56 "Hg1 mi
4:00 AM81 °FFog.No wind94%29.56 "Hg1 mi
3:30 AM81 °FFog.No wind94%29.59 "Hg1 mi
3:00 AM81 °FFog.No wind94%29.59 "Hg1 mi
2:30 AM81 °FFog.No wind94%29.59 "Hg1 mi
2:00 AM81 °FFog.3 mph94%29.59 "Hg1 mi
1:30 AM81 °FFog.3 mph94%29.59 "Hg1 mi
1:00 AM81 °FFog.5 mph94%29.62 "Hg1 mi
12:30 AM81 °FFog.5 mph94%29.62 "Hg1 mi
12:00 AM81 °FFog.5 mph94%29.62 "Hg1 mi
11:30 PM
Thu, Jul 28
81 °FFog.No wind94%29.62 "Hg1 mi
11:00 PM81 °FFog.No wind94%29.62 "Hg1 mi
Weather by CustomWeather, © 2016

See weather overviewHow to use our weather pages